EN

Hourly Weather Toshlem

Today, 13 May, Thursday

Time Temperature Precipitation Wind Pressure Humidity
00:00 +16°C° 0 mm 2 mps 759 mmHg 77%
01:00 +15°C° 0 mm 2 mps 759 mmHg 76%
02:00 +15°C° 0 mm 1 mps 759 mmHg 75%
03:00 +15°C° 0 mm 1 mps 759 mmHg 73%
04:00 +16°C° 0 mm 1 mps 759 mmHg 72%
05:00 +17°C° 0 mm 2 mps 759 mmHg 71%
06:00 +18°C° 0 mm 2 mps 759 mmHg 70%
07:00 +19°C° 0 mm 3 mps 759 mmHg 63%
08:00 +21°C° 0 mm 3 mps 759 mmHg 56%
09:00 +23°C° 0 mm 4 mps 759 mmHg 49%
10:00 +23°C° 0 mm 4 mps 759 mmHg 46%
11:00 +25°C° 0 mm 5 mps 758 mmHg 43%
12:00 +26°C° 0 mm 5 mps 758 mmHg 40%
13:00 +26°C° 0 mm 5 mps 758 mmHg 42%
14:00 +26°C° 0 mm 5 mps 757 mmHg 43%
15:00 +26°C° 0 mm 5 mps 757 mmHg 45%
16:00 +25°C° 0 mm 5 mps 757 mmHg 51%
17:00 +23°C° 0 mm 4 mps 756 mmHg 56%
18:00 +21°C° 0 mm 3 mps 756 mmHg 62%
19:00 +20°C° 0 mm 4 mps 756 mmHg 64%
20:00 +20°C° 0 mm 4 mps 755 mmHg 66%
21:00 +19°C° 0 mm 4 mps 755 mmHg 68%
22:00 +19°C° 0 mm 4 mps 755 mmHg 70%
23:00 +18°C° 0 mm 4 mps 755 mmHg 71%

Tomorrow, 14 May, Friday

Time Temperature Precipitation Wind Pressure Humidity
00:00 +18°C° 0 mm 4 mps 755 mmHg 72%
01:00 +17°C° 0.2 mm 4 mps 755 mmHg 76%
02:00 +16°C° 0.2 mm 3 mps 755 mmHg 80%
03:00 +16°C° 0.2 mm 3 mps 755 mmHg 83%
04:00 +16°C° 0.2 mm 3 mps 755 mmHg 82%
05:00 +17°C° 0.2 mm 3 mps 755 mmHg 81%
06:00 +17°C° 0.2 mm 3 mps 755 mmHg 80%
07:00 +19°C° 0 mm 3 mps 755 mmHg 75%
08:00 +20°C° 0 mm 3 mps 755 mmHg 70%
09:00 +22°C° 0 mm 3 mps 755 mmHg 66%
10:00 +24°C° 0 mm 3 mps 755 mmHg 62%
11:00 +25°C° 0 mm 3 mps 755 mmHg 58%
12:00 +26°C° 0 mm 4 mps 755 mmHg 55%
13:00 +26°C° 0 mm 4 mps 755 mmHg 54%
14:00 +26°C° 0 mm 4 mps 755 mmHg 53%
15:00 +26°C° 0 mm 4 mps 755 mmHg 52%
16:00 +26°C° 0 mm 3 mps 755 mmHg 56%
17:00 +25°C° 0 mm 2 mps 754 mmHg 61%
18:00 +25°C° 0 mm 2 mps 754 mmHg 66%
19:00 +23°C° 0 mm 2 mps 754 mmHg 72%
20:00 +21°C° 0 mm 2 mps 754 mmHg 78%
21:00 +19°C° 0 mm 2 mps 754 mmHg 84%
22:00 +18°C° 0 mm 2 mps 754 mmHg 84%
23:00 +18°C° 0 mm 2 mps 754 mmHg 84%

Day after tomorrow, 15 May, Saturday

Time Temperature Precipitation Wind Pressure Humidity
00:00 +17°C° 0 mm 2 mps 754 mmHg 84%
01:00 +17°C° 0 mm 2 mps 754 mmHg 84%
02:00 +17°C° 0 mm 2 mps 754 mmHg 83%
03:00 +17°C° 0 mm 2 mps 754 mmHg 82%
04:00 +17°C° 0 mm 2 mps 754 mmHg 81%
05:00 +18°C° 0 mm 2 mps 754 mmHg 80%
06:00 +19°C° 0 mm 2 mps 754 mmHg 78%
07:00 +20°C° 0 mm 3 mps 753 mmHg 71%
08:00 +22°C° 0 mm 4 mps 753 mmHg 63%
09:00 +25°C° 0 mm 5 mps 753 mmHg 55%
10:00 +26°C° 0 mm 5 mps 753 mmHg 50%
11:00 +27°C° 0 mm 5 mps 753 mmHg 45%
12:00 +29°C° 0 mm 6 mps 753 mmHg 39%
13:00 +29°C° 0 mm 6 mps 753 mmHg 39%
14:00 +29°C° 0 mm 6 mps 752 mmHg 39%
15:00 +29°C° 0 mm 6 mps 752 mmHg 39%
16:00 +28°C° 0 mm 6 mps 752 mmHg 43%
17:00 +27°C° 0 mm 5 mps 752 mmHg 47%
18:00 +25°C° 0 mm 5 mps 752 mmHg 51%
19:00 +23°C° 0 mm 5 mps 752 mmHg 56%
20:00 +21°C° 0 mm 4 mps 752 mmHg 60%
21:00 +20°C° 0 mm 4 mps 752 mmHg 65%
22:00 +19°C° 0 mm 4 mps 752 mmHg 66%
23:00 +18°C° 0 mm 4 mps 751 mmHg 66%

16 May, Sunday

Time Temperature Precipitation Wind Pressure Humidity
00:00 +17°C° 0 mm 3 mps 751 mmHg 67%
01:00 +17°C° 0 mm 3 mps 751 mmHg 68%
02:00 +16°C° 0 mm 3 mps 751 mmHg 68%
03:00 +16°C° 0 mm 3 mps 751 mmHg 69%
04:00 +17°C° 0 mm 3 mps 751 mmHg 67%
05:00 +18°C° 0 mm 4 mps 751 mmHg 65%
06:00 +18°C° 0 mm 4 mps 751 mmHg 62%
07:00 +20°C° 0 mm 5 mps 751 mmHg 57%
08:00 +23°C° 0 mm 5 mps 751 mmHg 51%
09:00 +26°C° 0 mm 6 mps 751 mmHg 46%
10:00 +27°C° 0 mm 6 mps 751 mmHg 44%
11:00 +28°C° 0 mm 6 mps 750 mmHg 41%
12:00 +29°C° 0 mm 7 mps 750 mmHg 39%
13:00 +29°C° 0 mm 6 mps 750 mmHg 40%
14:00 +29°C° 0 mm 6 mps 750 mmHg 42%
15:00 +29°C° 0 mm 6 mps 750 mmHg 43%
16:00 +28°C° 0 mm 5 mps 750 mmHg 50%
17:00 +26°C° 0 mm 5 mps 750 mmHg 56%
18:00 +25°C° 0 mm 4 mps 750 mmHg 63%
19:00 +22°C° 0.1 mm 4 mps 750 mmHg 70%
20:00 +21°C° 0.1 mm 3 mps 750 mmHg 78%
21:00 +19°C° 0.1 mm 3 mps 750 mmHg 85%
22:00 +18°C° 0 mm 3 mps 750 mmHg 87%
23:00 +18°C° 0 mm 3 mps 751 mmHg 89%

17 May, Monday

Time Temperature Precipitation Wind Pressure Humidity
00:00 +17°C° 0 mm 3 mps 751 mmHg 92%
01:00 +16°C° 0 mm 2 mps 751 mmHg 92%
02:00 +16°C° 0 mm 2 mps 751 mmHg 92%
03:00 +15°C° 0 mm 2 mps 752 mmHg 92%
04:00 +16°C° 0 mm 2 mps 752 mmHg 88%
05:00 +16°C° 0 mm 2 mps 752 mmHg 84%
06:00 +17°C° 0 mm 2 mps 752 mmHg 81%
07:00 +19°C° 0 mm 2 mps 753 mmHg 73%
08:00 +20°C° 0 mm 2 mps 753 mmHg 65%
09:00 +22°C° 0 mm 3 mps 753 mmHg 58%
10:00 +24°C° 0 mm 3 mps 753 mmHg 53%
11:00 +25°C° 0 mm 3 mps 753 mmHg 49%
12:00 +26°C° 0 mm 3 mps 753 mmHg 45%
13:00 +26°C° 0 mm 3 mps 753 mmHg 43%
14:00 +26°C° 0 mm 3 mps 753 mmHg 42%
15:00 +27°C° 0 mm 3 mps 753 mmHg 41%
16:00 +26°C° 0 mm 3 mps 753 mmHg 47%
17:00 +25°C° 0 mm 2 mps 753 mmHg 53%
18:00 +24°C° 0 mm 2 mps 753 mmHg 58%
19:00 +21°C° 0 mm 2 mps 753 mmHg 62%
20:00 +20°C° 0 mm 2 mps 753 mmHg 66%
21:00 +18°C° 0 mm 2 mps 753 mmHg 69%
22:00 +17°C° 0 mm 2 mps 753 mmHg 74%
23:00 +16°C° 0 mm 2 mps 753 mmHg 78%

18 May, Tuesday

Time Temperature Precipitation Wind Pressure Humidity
00:00 +14°C° 0 mm 3 mps 754 mmHg 83%
01:00 +14°C° 0 mm 3 mps 754 mmHg 84%
02:00 +14°C° 0 mm 3 mps 754 mmHg 85%
03:00 +14°C° 0 mm 2 mps 754 mmHg 86%
04:00 +16°C° 0 mm 2 mps 754 mmHg 83%
05:00 +17°C° 0 mm 2 mps 754 mmHg 79%
06:00 +18°C° 0 mm 2 mps 754 mmHg 76%
07:00 +19°C° 0 mm 2 mps 755 mmHg 70%
08:00 +21°C° 0 mm 2 mps 755 mmHg 63%
09:00 +24°C° 0 mm 2 mps 755 mmHg 57%
10:00 +24°C° 0 mm 2 mps 755 mmHg 54%
11:00 +25°C° 0 mm 2 mps 755 mmHg 51%
12:00 +26°C° 0 mm 2 mps 755 mmHg 47%
13:00 +27°C° 0 mm 3 mps 755 mmHg 47%
14:00 +27°C° 0 mm 3 mps 755 mmHg 47%
15:00 +27°C° 0 mm 3 mps 755 mmHg 47%
16:00 +26°C° 0 mm 3 mps 755 mmHg 51%
17:00 +25°C° 0 mm 3 mps 755 mmHg 56%
18:00 +24°C° 0 mm 3 mps 755 mmHg 61%
19:00 +21°C° 0.1 mm 4 mps 755 mmHg 67%
20:00 +20°C° 0.1 mm 4 mps 755 mmHg 72%
21:00 +18°C° 0.1 mm 4 mps 756 mmHg 77%
22:00 +18°C° 0 mm 4 mps 756 mmHg 77%
23:00 +17°C° 0 mm 4 mps 756 mmHg 76%
Show more

We Need Your Consent

Meteoprog and our Service Providers may store and access personal data such as cookies, device identifiers or other similar technologies on your device and process such data to personalise content and ads, as well as provide social media features and to analyse the traffic.

  • Store and/or access information on your device

    Cookies, device identifiers or other information can be stored or accessed on your device for the purposes indicated above.

  • Personalised ads and content, ad and content measurement, audience insights, and products development

    Ads and content can be personalised based on a profile. More data can be added to better personalise ads and content. Ad and content performance can be measured. Insights about the audience who saw the ads and content can be derived. Such data can be used to develop or improve user’s experience, systems and software.

By clicking ‘I Agree’ you will allow the use of indicated cookies, device identifiers, web beacons or other similar technologies. Your settings can be changed in the browser on your device.

For certain purposes, legitimate interests may be relied on, rather than consent. You can read more about this in our Privacy and Cookie Policy.